Flag for Greece Weather past 2 weeks in Kalamaria, Greece

Now
70 °F

Passing clouds.


Feels Like: 70 °F
Forecast: 54 / 73 °F
Wind: 3 mph from North

Location: Thessaloniki Airport

Current Time: Sep 23, 2014 at 7:56:11 AM

Latest Report: Sep 23, 2014 at 7:20 AM


Visibility: N/A

Pressure: 29.65 "Hg

Humidity: 78%

Dew point: 63 °F

Location of KalamariaLocation

Historic Weather in Kalamaria — Graph

°F

Kalamaria temperature yesterday

Maximum temperature yesterday: 82 °F (at 5:20 PM)
Minimum temperature yesterday: 63 °F (at 4:50 AM)
Average temperature yesterday: 73 °F

Past Weeks' High & Low Weather Summary

 TemperatureHumidityPressure
High84 °F (Sep 8, 4:50 PM)100% (Sep 19, 6:20 AM)30.21 "Hg (Sep 19, 6:20 AM)
Low55 °F (Sep 19, 7:20 AM)30% (Sep 10, 5:50 PM)29.65 "Hg (Sep 23, 5:20 AM)
Average71 °F73%29.96 "Hg
* Reported Sep 8 6:20 AM — Sep 23 6:20 AM, Kalamaria, Weather by CustomWeather, © 2014

Note: Actual official high and low records may vary slightly from our data, if they occured in-between our weather recording intervals... More about our weather records

Advertising

Kalamaria weather history for previous 24 hours

 ConditionsComfort  
Time TempWeatherWind HumidityBarometerVisibility
6:20 AM
Sep 23
70 °FPassing clouds.3 mph83%29.65 "HgN/A
5:50 AM70 °FPassing clouds.2 mph83%29.65 "HgN/A
5:20 AM72 °FPassing clouds.2 mph78%29.65 "HgN/A
4:50 AM72 °FPassing clouds.3 mph78%29.68 "HgN/A
4:20 AM73 °FPartly cloudy.7 mph78%29.68 "HgN/A
3:50 AM70 °FPartly cloudy.5 mph88%29.68 "HgN/A
2:20 AM72 °FPartly cloudy.6 mph88%29.71 "HgN/A
1:50 AM72 °FPartly cloudy.2 mph88%29.71 "HgN/A
1:20 AM72 °FPassing clouds.6 mph88%29.71 "HgN/A
12:50 AM73 °FPartly cloudy.1 mph78%29.71 "HgN/A
12:20 AM73 °FPassing clouds.3 mph83%29.71 "HgN/A
11:50 PM
Sep 22
72 °FPassing clouds.5 mph88%29.71 "HgN/A
11:20 PM75 °FDrizzle. Mostly cloudy.1 mph78%29.74 "HgN/A
10:50 PM75 °FPassing clouds.3 mph74%29.74 "HgN/A
10:20 PM75 °FPassing clouds.No wind74%29.74 "HgN/A
9:50 PM75 °FPassing clouds.3 mph74%29.71 "HgN/A
9:20 PM73 °FPassing clouds.3 mph78%29.71 "HgN/A
8:50 PM75 °FPassing clouds.3 mph78%29.71 "HgN/A
8:20 PM77 °FScattered clouds.6 mph79%29.71 "HgN/A
7:50 PM77 °FScattered clouds.8 mph79%29.71 "HgN/A
7:20 PM79 °FSunny.12 mph74%29.71 "Hg10 mi
6:50 PM79 °FSunny.12 mph74%29.71 "Hg10 mi
6:20 PM81 °FScattered clouds.12 mph66%29.71 "HgN/A
5:50 PM82 °FScattered clouds.12 mph62%29.71 "HgN/A
5:20 PM82 °FScattered clouds.5 mph62%29.71 "HgN/A
4:50 PM81 °FScattered clouds.5 mph66%29.74 "HgN/A
4:20 PM79 °FScattered clouds.8 mph74%29.74 "HgN/A
3:50 PM79 °FScattered clouds.8 mph74%29.74 "HgN/A
3:20 PM79 °FScattered clouds.7 mph70%29.74 "HgN/A
2:50 PM81 °FScattered clouds.7 mph66%29.77 "HgN/A
2:20 PM81 °FPassing clouds.9 mph58%29.77 "HgN/A
1:20 PM79 °FPassing clouds.6 mph65%29.80 "HgN/A
12:50 PM79 °FPassing clouds.2 mph65%29.80 "HgN/A
12:20 PM77 °FPassing clouds.3 mph65%29.83 "HgN/A
11:50 AM75 °FPartly sunny.2 mph74%29.83 "HgN/A
11:20 AM73 °FScattered clouds.2 mph74%29.83 "HgN/A
10:50 AM73 °FPartly sunny.3 mph78%29.86 "Hg5 mi
10:20 AM72 °FBroken clouds.2 mph83%29.86 "Hg5 mi
9:50 AM70 °FBroken clouds.1 mph83%29.86 "Hg5 mi
9:20 AM68 °FBroken clouds.2 mph88%29.86 "Hg6 mi
8:50 AM68 °FBroken clouds.1 mph88%29.86 "Hg5 mi
8:20 AM66 °FPartly sunny.5 mph88%29.86 "Hg5 mi
7:50 AM64 °FPassing clouds.5 mph94%29.86 "Hg5 mi
7:20 AM64 °FPassing clouds.5 mph94%29.86 "Hg5 mi
Weather by CustomWeather, © 2014

See weather overviewHow to use our weather pages